Location: *
(46.0770°N, 1.6444°E)
Time: 21:41:14
(UTC+00:00)

SL-16 R/B - Pass Details

Date: 16 September 2019
Orbit: 840 x 849 km, 71.0° (Epoch: 15 October)

Event Time Altitude Azimuth Distance (km) Brightness Sun altitude
Rises 18:55:42 0° 341° (NNW) 3,414 5.8 -9.7°
Reaches altitude 10° 18:59:23 10° 5° (N) 2,477 4.8 -10.4°
Maximum altitude 19:02:29 15° 39° (NE) 2,158 4.1 -10.9°
Drops below altitude 10° 19:05:35 10° 72° (ENE) 2,475 4.1 -11.4°
Enters shadow 19:05:43 10° 73° (ENE) 2,503 4.2 -11.4°
